This is the latest recevied weather packets stored in our database for station/object IW4ENL-7. If no packets are shown the sender has not sent any weather packets the latest 10 day(s).
| Time | Temp. | Humidity | Pressure | Rain* | Wind** | Luminosity | Snow |
|---|---|---|---|---|---|---|---|
| 1778071580 | 17.22° C | 68% | 956 hPa | - | - | - | - |
| 1778071397 | 17.22° C | 70% | 957 hPa | - | - | - | - |
| 1778071031 | 17.22° C | 71% | 956 hPa | - | - | - | - |
| 1778070848 | 16.67° C | 71% | 957 hPa | - | - | - | - |
| 1778070665 | 16.67° C | 72% | 957 hPa | - | - | - | - |
| 1778070482 | 16.67° C | 73% | 957 hPa | - | - | - | - |
| 1778070299 | 16.67° C | 74% | 957 hPa | - | - | - | - |
| 1778070116 | 16.11° C | 73% | 957 hPa | - | - | - | - |
| 1778069933 | 16.11° C | 73% | 957 hPa | - | - | - | - |
| 1778069750 | 15.56° C | 74% | 957 hPa | - | - | - | - |
| 1778069567 | 15.56° C | 75% | 957 hPa | - | - | - | - |
| 1778069384 | 15.56° C | 75% | 956 hPa | - | - | - | - |
| 1778069201 | 15.56° C | 77% | 957 hPa | - | - | - | - |
| 1778068836 | 15° C | 81% | 957 hPa | - | - | - | - |
| 1778068652 | 15° C | 80% | 957 hPa | - | - | - | - |
| 1778068469 | 14.44° C | 81% | 957 hPa | - | - | - | - |
| 1778068286 | 14.44° C | 81% | 957 hPa | - | - | - | - |
| 1778067737 | 13.89° C | 80% | 957 hPa | - | - | - | - |
| 1778067555 | 13.33° C | 81% | 957 hPa | - | - | - | - |
| 1778067371 | 13.33° C | 80% | 957 hPa | - | - | - | - |
| 1778067006 | 12.22° C | 78% | 957 hPa | - | - | - | - |
| 1778066823 | 11.67° C | 77% | 957 hPa | - | - | - | - |
| 1778066640 | 11.67° C | 75% | 957 hPa | - | - | - | - |
| 1778066274 | 11.67° C | 74% | 957 hPa | - | - | - | - |
| 1778066091 | 12.22° C | 74% | 957 hPa | - | - | - | - |
* Rain since midnight (hover to see other rain measurements)
** Current wind speed in m/s (hover to see current wind gust speed)